START_TIME,STEP,MOV.,A39,t_acc.,A33,t_acc.,P32,t_acc.,P31,t_acc.
1979-03-10 18:00:20.230 ,7,0,3.,0.8,0.,0.8,0.,0.8,7.,0.8
1979-03-10 18:00:21.030 ,7,0,3.,0.8,0.,0.8,0.,0.8,4.,0.8
1979-03-10 18:00:21.830 ,7,0,1.,0.8,0.,0.8,0.,0.8,5.,0.8
1979-03-10 18:00:22.630 ,7,0,0.,0.8,0.,0.8,0.,0.8,7.,0.8
1979-03-10 18:00:23.430 ,7,0,1.,0.8,0.,0.8,0.,0.8,8.,0.8
1979-03-10 18:00:24.230 ,7,0,3.,0.8,0.,0.8,0.,0.8,4.,0.8
1979-03-10 18:00:25.030 ,7,0,2.,0.8,0.,0.8,0.,0.8,3.,0.8
1979-03-10 18:00:25.830 ,7,0,3.,0.8,0.,0.8,0.,0.8,9.,0.8
1979-03-10 18:00:26.630 ,7,0,2.,0.8,0.,0.8,0.,0.8,10.,0.8
1979-03-10 18:00:27.430 ,7,0,2.,0.8,0.,0.8,0.,0.8,8.,0.8
1979-03-10 18:00:28.230 ,7,0,0.,0.8,0.,0.8,0.,0.8,8.,0.8
1979-03-10 18:00:29.030 ,7,0,2.,0.8,0.,0.8,0.,0.8,7.,0.8
1979-03-10 18:00:29.830 ,7,0,1.,0.8,0.,0.8,0.,0.8,8.,0.8
1979-03-10 18:00:30.630 ,7,0,3.,0.8,0.,0.8,0.,0.8,10.,0.8
1979-03-10 18:00:31.430 ,7,0,1.,0.8,0.,0.8,0.,0.8,4.,0.8
1979-03-10 18:00:32.230 ,7,0,2.,0.8,0.,0.8,0.,0.8,9.,0.8
1979-03-10 18:00:33.030 ,7,0,2.,0.8,0.,0.8,0.,0.8,9.,0.8
1979-03-10 18:00:33.830 ,7,0,3.,0.8,0.,0.8,0.,0.8,8.,0.8
1979-03-10 18:00:34.630 ,7,0,3.,0.8,0.,0.8,0.,0.8,7.,0.8
1979-03-10 18:00:35.430 ,7,0,2.,0.8,0.,0.8,0.,0.8,5.,0.8
1979-03-10 18:00:36.230 ,7,0,2.,0.8,0.,0.8,0.,0.8,4.,0.8
1979-03-10 18:00:37.030 ,7,0,1.,0.8,0.,0.8,0.,0.8,8.,0.8
1979-03-10 18:00:37.830 ,7,0,0.,0.8,0.,0.8,0.,0.8,4.,0.8
1979-03-10 18:00:38.630 ,7,0,0.,0.8,0.,0.8,0.,0.8,7.,0.8
1979-03-10 18:00:39.430 ,7,0,3.,0.8,0.,0.8,0.,0.8,12.,0.8
1979-03-10 18:00:40.230 ,7,0,2.,0.8,0.,0.8,0.,0.8,7.,0.8
1979-03-10 18:00:41.030 ,7,0,3.,0.8,0.,0.8,0.,0.8,5.,0.8
1979-03-10 18:00:41.830 ,7,0,3.,0.8,0.,0.8,0.,0.8,5.,0.8
1979-03-10 18:00:42.630 ,7,0,2.,0.8,0.,0.8,0.,0.8,4.,0.8
1979-03-10 18:00:43.430 ,7,0,2.,0.8,0.,0.8,0.,0.8,6.,0.8
1979-03-10 18:00:44.230 ,6,0,2.,0.8,0.,0.8,0.,0.8,6.,0.8
1979-03-10 18:00:45.030 ,6,0,2.,0.8,0.,0.8,0.,0.8,7.,0.8
1979-03-10 18:00:45.830 ,6,0,2.,0.8,0.,0.8,0.,0.8,4.,0.8
1979-03-10 18:00:46.630 ,6,0,0.,0.8,0.,0.8,0.,0.8,8.,0.8
1979-03-10 18:00:47.430 ,6,0,3.,0.8,0.,0.8,0.,0.8,9.,0.8
1979-03-10 18:00:48.230 ,6,0,3.,0.8,0.,0.8,0.,0.8,13.,0.8
1979-03-10 18:00:49.030 ,6,0,1.,0.8,0.,0.8,0.,0.8,9.,0.8
1979-03-10 18:00:49.830 ,6,0,4.,0.8,0.,0.8,0.,0.8,8.,0.8
1979-03-10 18:00:50.630 ,6,0,1.,0.8,0.,0.8,0.,0.8,6.,0.8
1979-03-10 18:00:51.430 ,6,0,2.,0.8,0.,0.8,0.,0.8,12.,0.8
1979-03-10 18:00:52.230 ,6,0,4.,0.8,0.,0.8,0.,0.8,10.,0.8
1979-03-10 18:00:53.030 ,6,0,2.,0.8,1.,0.8,0.,0.8,14.,0.8
1979-03-10 18:00:53.830 ,6,0,2.,0.8,0.,0.8,0.,0.8,9.,0.8
1979-03-10 18:00:54.630 ,6,0,1.,0.8,0.,0.8,0.,0.8,8.,0.8
1979-03-10 18:00:55.430 ,6,0,2.,0.8,0.,0.8,0.,0.8,9.,0.8
1979-03-10 18:00:56.230 ,6,0,1.,0.8,0.,0.8,0.,0.8,7.,0.8
1979-03-10 18:00:57.030 ,6,0,0.,0.8,0.,0.8,0.,0.8,11.,0.8
1979-03-10 18:00:57.830 ,6,0,2.,0.8,0.,0.8,0.,0.8,6.,0.8
1979-03-10 18:00:58.630 ,6,0,2.,0.8,0.,0.8,0.,0.8,12.,0.8
1979-03-10 18:00:59.430 ,6,0,1.,0.8,0.,0.8,0.,0.8,9.,0.8
1979-03-10 18:01:00.230 ,6,0,1.,0.8,0.,0.8,0.,0.8,13.,0.8
1979-03-10 18:01:01.030 ,6,0,0.,0.8,0.,0.8,0.,0.8,5.,0.8
1979-03-10 18:01:01.830 ,6,0,2.,0.8,0.,0.8,0.,0.8,11.,0.8
1979-03-10 18:01:02.630 ,6,0,3.,0.8,0.,0.8,0.,0.8,6.,0.8
1979-03-10 18:01:03.430 ,6,0,2.,0.8,0.,0.8,0.,0.8,11.,0.8
1979-03-10 18:01:04.230 ,6,0,3.,0.8,0.,0.8,0.,0.8,5.,0.8
1979-03-10 18:01:05.030 ,6,0,3.,0.8,0.,0.8,0.,0.8,12.,0.8
1979-03-10 18:01:05.830 ,6,0,2.,0.8,0.,0.8,0.,0.8,13.,0.8
1979-03-10 18:01:06.630 ,6,0,1.,0.8,0.,0.8,0.,0.8,9.,0.8
1979-03-10 18:01:07.430 ,6,0,3.,0.8,0.,0.8,0.,0.8,13.,0.8
1979-03-10 18:01:08.230 ,5,0,1.,0.8,0.,0.8,0.,0.8,3.,0.8
1979-03-10 18:01:09.030 ,5,0,1.,0.8,0.,0.8,0.,0.8,3.,0.8
1979-03-10 18:01:09.830 ,5,0,1.,0.8,0.,0.8,0.,0.8,6.,0.8
1979-03-10 18:01:10.630 ,5,0,0.,0.8,0.,0.8,0.,0.8,2.,0.8
1979-03-10 18:01:11.430 ,5,0,3.,0.8,0.,0.8,0.,0.8,8.,0.8
1979-03-10 18:01:12.230 ,5,0,2.,0.8,0.,0.8,0.,0.8,9.,0.8
1979-03-10 18:01:13.030 ,5,0,1.,0.8,0.,0.8,0.,0.8,11.,0.8
1979-03-10 18:01:13.830 ,5,0,2.,0.8,0.,0.8,0.,0.8,11.,0.8
1979-03-10 18:01:14.630 ,5,0,0.,0.8,0.,0.8,0.,0.8,11.,0.8
1979-03-10 18:01:15.430 ,5,0,2.,0.8,0.,0.8,0.,0.8,9.,0.8
1979-03-10 18:01:16.230 ,5,0,0.,0.8,0.,0.8,0.,0.8,9.,0.8
1979-03-10 18:01:17.030 ,5,0,1.,0.8,0.,0.8,0.,0.8,3.,0.8
1979-03-10 18:01:17.830 ,5,0,2.,0.8,0.,0.8,0.,0.8,7.,0.8
1979-03-10 18:01:18.630 ,5,0,2.,0.8,0.,0.8,0.,0.8,7.,0.8
1979-03-10 18:01:19.430 ,5,0,2.,0.8,0.,0.8,0.,0.8,9.,0.8
1979-03-10 18:01:20.230 ,5,0,2.,0.8,0.,0.8,0.,0.8,4.,0.8
1979-03-10 18:01:21.030 ,5,0,0.,0.8,0.,0.8,0.,0.8,7.,0.8
1979-03-10 18:01:21.830 ,5,0,0.,0.8,0.,0.8,0.,0.8,7.,0.8
1979-03-10 18:01:22.630 ,5,0,2.,0.8,0.,0.8,0.,0.8,10.,0.8
1979-03-10 18:01:23.430 ,5,0,2.,0.8,0.,0.8,0.,0.8,17.,0.8
1979-03-10 18:01:24.230 ,5,0,1.,0.8,0.,0.8,0.,0.8,7.,0.8
1979-03-10 18:01:25.030 ,5,0,1.,0.8,0.,0.8,0.,0.8,4.,0.8
1979-03-10 18:01:25.830 ,5,0,3.,0.8,0.,0.8,0.,0.8,4.,0.8
1979-03-10 18:01:26.630 ,5,0,1.,0.8,0.,0.8,0.,0.8,11.,0.8
1979-03-10 18:01:27.430 ,5,0,1.,0.8,0.,0.8,0.,0.8,13.,0.8
1979-03-10 18:01:28.230 ,5,0,1.,0.8,0.,0.8,0.,0.8,9.,0.8
1979-03-10 18:01:29.030 ,5,0,1.,0.8,0.,0.8,0.,0.8,10.,0.8
1979-03-10 18:01:29.830 ,5,0,1.,0.8,0.,0.8,0.,0.8,8.,0.8
1979-03-10 18:01:30.630 ,5,0,3.,0.8,0.,0.8,0.,0.8,11.,0.8
1979-03-10 18:01:31.430 ,5,0,2.,0.8,0.,0.8,0.,0.8,7.,0.8
1979-03-10 18:01:32.230 ,4,0,3.,0.8,0.,0.8,0.,0.8,9.,0.8
1979-03-10 18:01:33.030 ,4,0,3.,0.8,0.,0.8,0.,0.8,9.,0.8
1979-03-10 18:01:33.830 ,4,0,1.,0.8,0.,0.8,0.,0.8,11.,0.8
1979-03-10 18:01:34.630 ,4,0,3.,0.8,0.,0.8,0.,0.8,8.,0.8
1979-03-10 18:01:35.430 ,4,0,3.,0.8,0.,0.8,0.,0.8,7.,0.8
1979-03-10 18:01:36.230 ,4,0,2.,0.8,0.,0.8,0.,0.8,10.,0.8
1979-03-10 18:01:37.030 ,4,0,3.,0.8,0.,0.8,0.,0.8,9.,0.8
1979-03-10 18:01:37.830 ,4,0,1.,0.8,0.,0.8,0.,0.8,12.,0.8
1979-03-10 18:01:38.630 ,4,0,2.,0.8,0.,0.8,0.,0.8,8.,0.8
1979-03-10 18:01:39.430 ,4,0,1.,0.8,0.,0.8,0.,0.8,10.,0.8
1979-03-10 18:01:40.230 ,4,0,1.,0.8,0.,0.8,0.,0.8,11.,0.8
1979-03-10 18:01:41.030 ,4,0,1.,0.8,0.,0.8,0.,0.8,8.,0.8
1979-03-10 18:01:41.830 ,4,0,2.,0.8,0.,0.8,0.,0.8,5.,0.8
1979-03-10 18:01:42.630 ,4,0,0.,0.8,0.,0.8,0.,0.8,5.,0.8
1979-03-10 18:01:43.430 ,4,0,3.,0.8,0.,0.8,0.,0.8,7.,0.8
1979-03-10 18:01:44.230 ,4,0,3.,0.8,0.,0.8,0.,0.8,10.,0.8
1979-03-10 18:01:45.030 ,4,0,3.,0.8,0.,0.8,0.,0.8,9.,0.8
1979-03-10 18:01:45.830 ,4,0,4.,0.8,0.,0.8,0.,0.8,8.,0.8
1979-03-10 18:01:46.630 ,4,0,2.,0.8,0.,0.8,0.,0.8,7.,0.8
1979-03-10 18:01:47.430 ,4,0,1.,0.8,0.,0.8,0.,0.8,8.,0.8
1979-03-10 18:01:48.230 ,4,0,0.,0.8,0.,0.8,0.,0.8,7.,0.8
1979-03-10 18:01:49.030 ,4,0,2.,0.8,0.,0.8,0.,0.8,6.,0.8
1979-03-10 18:01:49.830 ,4,0,2.,0.8,0.,0.8,0.,0.8,9.,0.8
1979-03-10 18:01:50.630 ,4,0,4.,0.8,0.,0.8,0.,0.8,8.,0.8
1979-03-10 18:01:51.430 ,4,0,0.,0.8,0.,0.8,0.,0.8,9.,0.8
1979-03-10 18:01:52.230 ,4,0,1.,0.8,0.,0.8,0.,0.8,8.,0.8
1979-03-10 18:01:53.030 ,4,0,2.,0.8,0.,0.8,0.,0.8,6.,0.8
1979-03-10 18:01:53.830 ,4,0,5.,0.8,0.,0.8,0.,0.8,11.,0.8
1979-03-10 18:01:54.630 ,4,0,4.,0.8,0.,0.8,0.,0.8,10.,0.8
1979-03-10 18:01:55.430 ,4,0,3.,0.8,0.,0.8,0.,0.8,5.,0.8
1979-03-10 18:01:56.230 ,3,0,3.,0.8,0.,0.8,0.,0.8,10.,0.8
1979-03-10 18:01:57.030 ,3,0,2.,0.8,0.,0.8,0.,0.8,11.,0.8
1979-03-10 18:01:57.830 ,3,0,2.,0.8,0.,0.8,0.,0.8,7.,0.8
1979-03-10 18:01:58.630 ,3,0,1.,0.8,0.,0.8,0.,0.8,5.,0.8
1979-03-10 18:01:59.430 ,3,0,1.,0.8,0.,0.8,0.,0.8,6.,0.8
1979-03-10 18:02:00.230 ,3,0,2.,0.8,0.,0.8,0.,0.8,11.,0.8
1979-03-10 18:02:01.030 ,3,0,2.,0.8,0.,0.8,0.,0.8,10.,0.8
1979-03-10 18:02:01.830 ,3,0,2.,0.8,0.,0.8,0.,0.8,7.,0.8
1979-03-10 18:02:02.630 ,3,0,3.,0.8,0.,0.8,0.,0.8,10.,0.8
1979-03-10 18:02:03.430 ,3,0,1.,0.8,0.,0.8,0.,0.8,4.,0.8
1979-03-10 18:02:04.230 ,3,0,2.,0.8,0.,0.8,0.,0.8,6.,0.8
1979-03-10 18:02:05.030 ,3,0,2.,0.8,0.,0.8,0.,0.8,2.,0.8
1979-03-10 18:02:05.830 ,3,0,1.,0.8,0.,0.8,0.,0.8,5.,0.8
1979-03-10 18:02:06.630 ,3,0,3.,0.8,0.,0.8,0.,0.8,7.,0.8
1979-03-10 18:02:07.430 ,3,0,3.,0.8,0.,0.8,0.,0.8,6.,0.8
1979-03-10 18:02:08.230 ,3,0,3.,0.8,0.,0.8,0.,0.8,8.,0.8
1979-03-10 18:02:09.030 ,3,0,3.,0.8,0.,0.8,0.,0.8,8.,0.8
1979-03-10 18:02:09.830 ,3,0,2.,0.8,0.,0.8,0.,0.8,12.,0.8
1979-03-10 18:02:10.630 ,3,0,1.,0.8,0.,0.8,0.,0.8,3.,0.8
1979-03-10 18:02:11.430 ,3,0,2.,0.8,0.,0.8,0.,0.8,6.,0.8
1979-03-10 18:02:12.230 ,3,0,3.,0.8,0.,0.8,0.,0.8,3.,0.8
1979-03-10 18:02:13.030 ,3,0,2.,0.8,0.,0.8,0.,0.8,6.,0.8
1979-03-10 18:02:13.830 ,3,0,3.,0.8,0.,0.8,0.,0.8,6.,0.8
1979-03-10 18:02:14.630 ,3,0,2.,0.8,0.,0.8,0.,0.8,8.,0.8
1979-03-10 18:02:15.430 ,3,0,3.,0.8,0.,0.8,0.,0.8,9.,0.8
1979-03-10 18:02:16.230 ,3,0,3.,0.8,0.,0.8,0.,0.8,6.,0.8
1979-03-10 18:02:17.030 ,3,0,2.,0.8,0.,0.8,0.,0.8,13.,0.8
1979-03-10 18:02:17.830 ,3,0,1.,0.8,0.,0.8,0.,0.8,3.,0.8
1979-03-10 18:02:18.630 ,3,0,2.,0.8,0.,0.8,0.,0.8,9.,0.8
1979-03-10 18:02:19.430 ,3,0,2.,0.8,0.,0.8,0.,0.8,3.,0.8
1979-03-10 18:02:20.230 ,2,0,1.,0.8,0.,0.8,0.,0.8,7.,0.8
1979-03-10 18:02:21.030 ,2,0,1.,0.8,0.,0.8,0.,0.8,2.,0.8
1979-03-10 18:02:21.830 ,2,0,1.,0.8,1.,0.8,0.,0.8,4.,0.8
1979-03-10 18:02:22.630 ,2,0,2.,0.8,0.,0.8,0.,0.8,6.,0.8
1979-03-10 18:02:23.430 ,2,0,1.,0.8,0.,0.8,0.,0.8,7.,0.8
1979-03-10 18:02:24.230 ,2,0,1.,0.8,0.,0.8,0.,0.8,5.,0.8
1979-03-10 18:02:25.030 ,2,0,3.,0.8,0.,0.8,0.,0.8,5.,0.8
1979-03-10 18:02:25.830 ,2,0,0.,0.8,0.,0.8,0.,0.8,7.,0.8
1979-03-10 18:02:26.630 ,2,0,2.,0.8,0.,0.8,0.,0.8,7.,0.8
1979-03-10 18:02:27.430 ,2,0,1.,0.8,0.,0.8,0.,0.8,7.,0.8
1979-03-10 18:02:28.230 ,2,0,4.,0.8,0.,0.8,0.,0.8,11.,0.8
1979-03-10 18:02:29.030 ,2,0,3.,0.8,0.,0.8,0.,0.8,9.,0.8
1979-03-10 18:02:29.830 ,2,0,3.,0.8,0.,0.8,0.,0.8,8.,0.8
1979-03-10 18:02:30.630 ,2,0,3.,0.8,0.,0.8,0.,0.8,10.,0.8
1979-03-10 18:02:31.430 ,2,0,0.,0.8,0.,0.8,0.,0.8,1.,0.8
1979-03-10 18:02:32.230 ,2,0,4.,0.8,0.,0.8,0.,0.8,14.,0.8
1979-03-10 18:02:33.030 ,2,0,4.,0.8,0.,0.8,0.,0.8,10.,0.8
1979-03-10 18:02:33.830 ,2,0,1.,0.8,0.,0.8,0.,0.8,7.,0.8
1979-03-10 18:02:34.630 ,2,0,1.,0.8,0.,0.8,0.,0.8,10.,0.8
1979-03-10 18:02:35.430 ,2,0,1.,0.8,0.,0.8,0.,0.8,9.,0.8
1979-03-10 18:02:36.230 ,2,0,2.,0.8,0.,0.8,0.,0.8,5.,0.8
1979-03-10 18:02:37.030 ,2,0,2.,0.8,0.,0.8,0.,0.8,5.,0.8
1979-03-10 18:02:37.830 ,2,0,4.,0.8,0.,0.8,0.,0.8,9.,0.8
1979-03-10 18:02:38.630 ,2,0,2.,0.8,0.,0.8,0.,0.8,5.,0.8
1979-03-10 18:02:39.430 ,2,0,1.,0.8,0.,0.8,0.,0.8,11.,0.8
1979-03-10 18:02:40.230 ,2,0,3.,0.8,0.,0.8,0.,0.8,6.,0.8
1979-03-10 18:02:41.030 ,2,0,2.,0.8,0.,0.8,0.,0.8,8.,0.8
1979-03-10 18:02:41.830 ,2,0,2.,0.8,0.,0.8,0.,0.8,4.,0.8
1979-03-10 18:02:42.630 ,2,0,1.,0.8,0.,0.8,0.,0.8,12.,0.8
1979-03-10 18:02:43.430 ,2,0,3.,0.8,0.,0.8,0.,0.8,10.,0.8
1979-03-10 18:02:44.230 ,1,0,0.,0.8,0.,0.8,0.,0.8,9.,0.8
1979-03-10 18:02:45.030 ,1,0,3.,0.8,0.,0.8,0.,0.8,8.,0.8
1979-03-10 18:02:45.830 ,1,0,2.,0.8,0.,0.8,0.,0.8,11.,0.8
1979-03-10 18:02:46.630 ,1,0,1.,0.8,0.,0.8,0.,0.8,5.,0.8
1979-03-10 18:02:47.430 ,1,0,2.,0.8,0.,0.8,0.,0.8,6.,0.8
1979-03-10 18:02:48.230 ,1,0,3.,0.8,0.,0.8,0.,0.8,11.,0.8
1979-03-10 18:02:49.030 ,1,0,3.,0.8,0.,0.8,0.,0.8,9.,0.8
1979-03-10 18:02:49.830 ,1,0,3.,0.8,0.,0.8,0.,0.8,11.,0.8
1979-03-10 18:02:50.630 ,1,0,2.,0.8,0.,0.8,0.,0.8,6.,0.8
1979-03-10 18:02:51.430 ,1,0,4.,0.8,0.,0.8,0.,0.8,13.,0.8
1979-03-10 18:02:52.230 ,1,0,2.,0.8,0.,0.8,0.,0.8,6.,0.8
1979-03-10 18:02:53.030 ,1,0,3.,0.8,0.,0.8,0.,0.8,11.,0.8
1979-03-10 18:02:53.830 ,1,0,0.,0.8,0.,0.8,0.,0.8,5.,0.8
1979-03-10 18:02:54.630 ,1,0,1.,0.8,0.,0.8,0.,0.8,4.,0.8
1979-03-10 18:02:55.430 ,1,0,0.,0.8,0.,0.8,0.,0.8,8.,0.8
1979-03-10 18:02:56.230 ,1,0,3.,0.8,0.,0.8,0.,0.8,12.,0.8
1979-03-10 18:02:57.030 ,1,0,1.,0.8,0.,0.8,0.,0.8,9.,0.8
1979-03-10 18:02:57.830 ,1,0,1.,0.8,0.,0.8,0.,0.8,6.,0.8
1979-03-10 18:02:58.630 ,1,0,3.,0.8,0.,0.8,0.,0.8,3.,0.8
1979-03-10 18:02:59.430 ,1,0,2.,0.8,0.,0.8,0.,0.8,7.,0.8
1979-03-10 18:03:00.230 ,1,0,3.,0.8,0.,0.8,0.,0.8,9.,0.8
1979-03-10 18:03:01.030 ,1,0,2.,0.8,0.,0.8,0.,0.8,8.,0.8
1979-03-10 18:03:01.830 ,1,0,3.,0.8,0.,0.8,0.,0.8,6.,0.8
1979-03-10 18:03:02.630 ,1,0,2.,0.8,0.,0.8,0.,0.8,10.,0.8
1979-03-10 18:03:03.430 ,1,0,2.,0.8,0.,0.8,0.,0.8,10.,0.8
1979-03-10 18:03:04.230 ,1,0,3.,0.8,0.,0.8,0.,0.8,9.,0.8
1979-03-10 18:03:05.030 ,1,0,2.,0.8,0.,0.8,0.,0.8,9.,0.8
1979-03-10 18:03:05.830 ,1,0,0.,0.8,0.,0.8,0.,0.8,11.,0.8
1979-03-10 18:03:06.630 ,1,0,2.,0.8,0.,0.8,0.,0.8,8.,0.8
1979-03-10 18:03:07.430 ,1,0,2.,0.8,0.,0.8,0.,0.8,9.,0.8
1979-03-10 18:03:08.230 ,0,0,2.,0.8,0.,0.8,0.,0.8,5.,0.8
1979-03-10 18:03:09.030 ,0,0,3.,0.8,0.,0.8,0.,0.8,6.,0.8
1979-03-10 18:03:09.830 ,0,0,2.,0.8,0.,0.8,0.,0.8,7.,0.8
1979-03-10 18:03:10.630 ,0,0,3.,0.8,0.,0.8,0.,0.8,8.,0.8
1979-03-10 18:03:11.430 ,0,0,2.,0.8,0.,0.8,0.,0.8,6.,0.8
1979-03-10 18:03:12.230 ,0,0,1.,0.8,0.,0.8,0.,0.8,5.,0.8
1979-03-10 18:03:13.030 ,0,0,1.,0.8,0.,0.8,0.,0.8,3.,0.8
1979-03-10 18:03:13.830 ,0,0,2.,0.8,0.,0.8,0.,0.8,7.,0.8
1979-03-10 18:03:14.630 ,0,0,3.,0.8,0.,0.8,0.,0.8,7.,0.8
1979-03-10 18:03:15.430 ,0,0,1.,0.8,0.,0.8,0.,0.8,5.,0.8
1979-03-10 18:03:16.230 ,0,0,3.,0.8,0.,0.8,0.,0.8,8.,0.8
1979-03-10 18:03:17.030 ,0,0,1.,0.8,0.,0.8,0.,0.8,6.,0.8
1979-03-10 18:03:17.830 ,0,0,0.,0.8,0.,0.8,0.,0.8,6.,0.8
1979-03-10 18:03:18.630 ,0,0,1.,0.8,0.,0.8,0.,0.8,3.,0.8
1979-03-10 18:03:19.430 ,0,0,1.,0.8,0.,0.8,0.,0.8,3.,0.8
1979-03-10 18:03:20.230 ,0,0,1.,0.8,0.,0.8,0.,0.8,16.,0.8
1979-03-10 18:03:21.030 ,0,0,1.,0.8,0.,0.8,0.,0.8,12.,0.8
1979-03-10 18:03:21.830 ,0,0,2.,0.8,0.,0.8,0.,0.8,7.,0.8
1979-03-10 18:03:22.630 ,0,0,2.,0.8,0.,0.8,0.,0.8,9.,0.8
1979-03-10 18:03:23.430 ,0,0,2.,0.8,0.,0.8,0.,0.8,9.,0.8
1979-03-10 18:03:24.230 ,0,0,0.,0.8,0.,0.8,0.,0.8,2.,0.8
1979-03-10 18:03:25.030 ,0,0,3.,0.8,0.,0.8,0.,0.8,12.,0.8
1979-03-10 18:03:25.830 ,0,0,0.,0.8,0.,0.8,0.,0.8,12.,0.8
1979-03-10 18:03:26.630 ,0,0,1.,0.8,0.,0.8,0.,0.8,9.,0.8
1979-03-10 18:03:27.430 ,0,0,2.,0.8,0.,0.8,0.,0.8,7.,0.8
1979-03-10 18:03:28.230 ,0,0,1.,0.8,0.,0.8,0.,0.8,10.,0.8
1979-03-10 18:03:29.030 ,0,0,1.,0.8,0.,0.8,0.,0.8,13.,0.8
1979-03-10 18:03:29.830 ,0,0,0.,0.8,0.,0.8,0.,0.8,10.,0.8
1979-03-10 18:03:30.630 ,0,0,2.,0.8,0.,0.8,0.,0.8,5.,0.8
1979-03-10 18:03:31.430 ,0,0,2.,0.8,0.,0.8,0.,0.8,8.,0.8
1979-03-10 18:03:32.230 ,0,0,2.,0.8,0.,0.8,0.,0.8,10.,0.8
1979-03-10 18:03:33.030 ,0,0,2.,0.8,0.,0.8,0.,0.8,7.,0.8
1979-03-10 18:03:33.830 ,0,0,1.,0.8,0.,0.8,0.,0.8,6.,0.8
1979-03-10 18:03:34.630 ,0,0,2.,0.8,0.,0.8,0.,0.8,5.,0.8
1979-03-10 18:03:35.430 ,0,0,3.,0.8,0.,0.8,0.,0.8,6.,0.8
1979-03-10 18:03:36.230 ,0,0,2.,0.8,0.,0.8,0.,0.8,7.,0.8
1979-03-10 18:03:37.030 ,0,0,1.,0.8,0.,0.8,0.,0.8,11.,0.8
1979-03-10 18:03:37.830 ,0,0,2.,0.8,0.,0.8,0.,0.8,11.,0.8
1979-03-10 18:03:38.630 ,0,0,2.,0.8,0.,0.8,0.,0.8,8.,0.8
1979-03-10 18:03:39.430 ,0,0,0.,0.8,0.,0.8,0.,0.8,4.,0.8
1979-03-10 18:03:40.230 ,0,0,2.,0.8,0.,0.8,0.,0.8,5.,0.8
1979-03-10 18:03:41.030 ,0,0,2.,0.8,0.,0.8,0.,0.8,13.,0.8
1979-03-10 18:03:41.830 ,0,0,3.,0.8,0.,0.8,0.,0.8,8.,0.8
1979-03-10 18:03:42.630 ,0,0,2.,0.8,0.,0.8,0.,0.8,10.,0.8
1979-03-10 18:03:43.430 ,0,0,3.,0.8,0.,0.8,0.,0.8,11.,0.8
1979-03-10 18:03:44.230 ,0,0,1.,0.8,0.,0.8,0.,0.8,11.,0.8
1979-03-10 18:03:45.030 ,0,0,1.,0.8,0.,0.8,0.,0.8,7.,0.8
1979-03-10 18:03:45.830 ,0,0,2.,0.8,0.,0.8,0.,0.8,8.,0.8
1979-03-10 18:03:46.630 ,0,0,1.,0.8,0.,0.8,0.,0.8,9.,0.8
1979-03-10 18:03:47.430 ,0,0,1.,0.8,0.,0.8,0.,0.8,3.,0.8
1979-03-10 18:03:48.230 ,0,0,2.,0.8,0.,0.8,0.,0.8,5.,0.8
1979-03-10 18:03:49.030 ,0,0,1.,0.8,0.,0.8,0.,0.8,4.,0.8
1979-03-10 18:03:49.830 ,0,0,2.,0.8,0.,0.8,0.,0.8,7.,0.8
1979-03-10 18:03:50.630 ,0,0,0.,0.8,0.,0.8,0.,0.8,10.,0.8
1979-03-10 18:03:51.430 ,0,0,0.,0.8,0.,0.8,0.,0.8,6.,0.8
1979-03-10 18:03:52.230 ,0,0,2.,0.8,0.,0.8,0.,0.8,15.,0.8
1979-03-10 18:03:53.030 ,0,0,2.,0.8,0.,0.8,0.,0.8,8.,0.8
1979-03-10 18:03:53.830 ,0,0,0.,0.8,0.,0.8,0.,0.8,9.,0.8
1979-03-10 18:03:54.630 ,0,0,0.,0.8,0.,0.8,0.,0.8,11.,0.8
1979-03-10 18:03:55.430 ,0,0,1.,0.8,0.,0.8,0.,0.8,8.,0.8
1979-03-10 18:03:56.230 ,1,0,4.,0.8,0.,0.8,0.,0.8,7.,0.8
1979-03-10 18:03:57.030 ,1,0,0.,0.8,0.,0.8,0.,0.8,10.,0.8
1979-03-10 18:03:57.830 ,1,0,0.,0.8,0.,0.8,0.,0.8,8.,0.8
1979-03-10 18:03:58.630 ,1,0,0.,0.8,0.,0.8,0.,0.8,12.,0.8
1979-03-10 18:03:59.430 ,1,0,2.,0.8,0.,0.8,0.,0.8,7.,0.8
1979-03-10 18:04:00.230 ,1,0,1.,0.8,0.,0.8,0.,0.8,8.,0.8
1979-03-10 18:04:01.030 ,1,0,2.,0.8,0.,0.8,0.,0.8,13.,0.8
1979-03-10 18:04:01.830 ,1,0,2.,0.8,0.,0.8,0.,0.8,9.,0.8
1979-03-10 18:04:02.630 ,1,0,0.,0.8,0.,0.8,0.,0.8,10.,0.8
1979-03-10 18:04:03.430 ,1,0,1.,0.8,0.,0.8,0.,0.8,5.,0.8
1979-03-10 18:04:04.230 ,1,0,1.,0.8,0.,0.8,0.,0.8,11.,0.8
1979-03-10 18:04:05.030 ,1,0,0.,0.8,0.,0.8,0.,0.8,7.,0.8
1979-03-10 18:04:05.830 ,1,0,2.,0.8,0.,0.8,0.,0.8,10.,0.8
1979-03-10 18:04:06.630 ,1,0,2.,0.8,0.,0.8,0.,0.8,12.,0.8
1979-03-10 18:04:07.430 ,1,0,1.,0.8,0.,0.8,0.,0.8,8.,0.8
1979-03-10 18:04:08.230 ,1,0,2.,0.8,0.,0.8,0.,0.8,17.,0.8
1979-03-10 18:04:09.030 ,1,0,1.,0.8,0.,0.8,0.,0.8,8.,0.8
1979-03-10 18:04:09.830 ,1,0,1.,0.8,0.,0.8,0.,0.8,2.,0.8
1979-03-10 18:04:10.630 ,1,0,0.,0.8,0.,0.8,0.,0.8,3.,0.8
1979-03-10 18:04:11.430 ,1,0,1.,0.8,0.,0.8,0.,0.8,12.,0.8
1979-03-10 18:04:12.230 ,1,0,3.,0.8,0.,0.8,0.,0.8,5.,0.8
1979-03-10 18:04:13.030 ,1,0,3.,0.8,0.,0.8,0.,0.8,10.,0.8
1979-03-10 18:04:13.830 ,1,0,3.,0.8,0.,0.8,0.,0.8,12.,0.8
1979-03-10 18:04:14.630 ,1,0,4.,0.8,0.,0.8,0.,0.8,7.,0.8
1979-03-10 18:04:15.430 ,1,0,1.,0.8,0.,0.8,0.,0.8,11.,0.8
1979-03-10 18:04:16.230 ,1,0,2.,0.8,0.,0.8,0.,0.8,6.,0.8
1979-03-10 18:04:17.030 ,1,0,2.,0.8,0.,0.8,0.,0.8,6.,0.8
1979-03-10 18:04:17.830 ,1,0,1.,0.8,0.,0.8,0.,0.8,5.,0.8
1979-03-10 18:04:18.630 ,1,0,3.,0.8,0.,0.8,0.,0.8,9.,0.8
1979-03-10 18:04:19.430 ,1,0,3.,0.8,0.,0.8,0.,0.8,12.,0.8
1979-03-10 18:04:20.230 ,2,0,1.,0.8,0.,0.8,0.,0.8,12.,0.8
1979-03-10 18:04:21.030 ,2,0,3.,0.8,0.,0.8,0.,0.8,10.,0.8
1979-03-10 18:04:21.830 ,2,0,1.,0.8,0.,0.8,0.,0.8,7.,0.8
1979-03-10 18:04:22.630 ,2,0,3.,0.8,0.,0.8,0.,0.8,13.,0.8
1979-03-10 18:04:23.430 ,2,0,2.,0.8,0.,0.8,0.,0.8,4.,0.8
1979-03-10 18:04:24.230 ,2,0,1.,0.8,0.,0.8,0.,0.8,6.,0.8
1979-03-10 18:04:25.030 ,2,0,2.,0.8,0.,0.8,0.,0.8,6.,0.8
1979-03-10 18:04:25.830 ,2,0,2.,0.8,0.,0.8,0.,0.8,5.,0.8
1979-03-10 18:04:26.630 ,2,0,2.,0.8,0.,0.8,0.,0.8,12.,0.8
1979-03-10 18:04:27.430 ,2,0,2.,0.8,0.,0.8,0.,0.8,4.,0.8
1979-03-10 18:04:28.230 ,2,0,1.,0.8,0.,0.8,0.,0.8,4.,0.8
1979-03-10 18:04:29.030 ,2,0,2.,0.8,0.,0.8,0.,0.8,8.,0.8
1979-03-10 18:04:29.830 ,2,0,1.,0.8,0.,0.8,0.,0.8,10.,0.8
1979-03-10 18:04:30.630 ,2,0,3.,0.8,0.,0.8,0.,0.8,14.,0.8
1979-03-10 18:04:31.430 ,2,0,3.,0.8,0.,0.8,0.,0.8,7.,0.8
1979-03-10 18:04:32.230 ,2,0,3.,0.8,0.,0.8,0.,0.8,10.,0.8
1979-03-10 18:04:33.030 ,2,0,2.,0.8,0.,0.8,0.,0.8,17.,0.8
1979-03-10 18:04:33.830 ,2,0,0.,0.8,0.,0.8,0.,0.8,7.,0.8
1979-03-10 18:04:34.630 ,2,0,3.,0.8,0.,0.8,0.,0.8,17.,0.8
1979-03-10 18:04:35.430 ,2,0,3.,0.8,0.,0.8,0.,0.8,11.,0.8
1979-03-10 18:04:36.230 ,2,0,3.,0.8,0.,0.8,0.,0.8,10.,0.8
1979-03-10 18:04:37.030 ,2,0,1.,0.8,0.,0.8,0.,0.8,12.,0.8
1979-03-10 18:04:37.830 ,2,0,0.,0.8,0.,0.8,0.,0.8,6.,0.8
1979-03-10 18:04:38.630 ,2,0,2.,0.8,0.,0.8,0.,0.8,14.,0.8
1979-03-10 18:04:39.430 ,2,0,1.,0.8,0.,0.8,0.,0.8,5.,0.8
1979-03-10 18:04:40.230 ,2,0,4.,0.8,0.,0.8,0.,0.8,7.,0.8
1979-03-10 18:04:41.030 ,2,0,3.,0.8,0.,0.8,0.,0.8,7.,0.8
1979-03-10 18:04:41.830 ,2,0,1.,0.8,0.,0.8,0.,0.8,7.,0.8
1979-03-10 18:04:42.630 ,2,0,1.,0.8,0.,0.8,0.,0.8,6.,0.8
1979-03-10 18:04:43.430 ,2,0,0.,0.8,0.,0.8,0.,0.8,6.,0.8
1979-03-10 18:04:44.230 ,3,0,1.,0.8,0.,0.8,0.,0.8,11.,0.8
1979-03-10 18:04:45.030 ,3,0,2.,0.8,0.,0.8,0.,0.8,3.,0.8
1979-03-10 18:04:45.830 ,3,0,1.,0.8,0.,0.8,0.,0.8,9.,0.8
1979-03-10 18:04:46.630 ,3,0,4.,0.8,0.,0.8,0.,0.8,10.,0.8
1979-03-10 18:04:47.430 ,3,0,3.,0.8,0.,0.8,0.,0.8,16.,0.8
1979-03-10 18:04:48.230 ,3,0,1.,0.8,0.,0.8,1.,0.8,11.,0.8
1979-03-10 18:04:49.030 ,3,0,2.,0.8,0.,0.8,0.,0.8,4.,0.8
1979-03-10 18:04:49.830 ,3,0,1.,0.8,0.,0.8,0.,0.8,6.,0.8
1979-03-10 18:04:50.630 ,3,0,2.,0.8,0.,0.8,0.,0.8,8.,0.8
1979-03-10 18:04:51.430 ,3,0,3.,0.8,0.,0.8,0.,0.8,11.,0.8
1979-03-10 18:04:52.230 ,3,0,2.,0.8,0.,0.8,0.,0.8,9.,0.8
1979-03-10 18:04:53.030 ,3,0,1.,0.8,0.,0.8,0.,0.8,8.,0.8
1979-03-10 18:04:53.830 ,3,0,2.,0.8,0.,0.8,0.,0.8,7.,0.8
1979-03-10 18:04:54.630 ,3,0,2.,0.8,0.,0.8,0.,0.8,6.,0.8
1979-03-10 18:04:55.430 ,3,0,2.,0.8,0.,0.8,0.,0.8,7.,0.8
1979-03-10 18:04:56.230 ,3,0,2.,0.8,0.,0.8,0.,0.8,10.,0.8
1979-03-10 18:04:57.030 ,3,0,2.,0.8,0.,0.8,0.,0.8,4.,0.8
1979-03-10 18:04:57.830 ,3,0,1.,0.8,0.,0.8,0.,0.8,5.,0.8
1979-03-10 18:04:58.630 ,3,0,1.,0.8,0.,0.8,0.,0.8,4.,0.8
1979-03-10 18:04:59.430 ,3,0,1.,0.8,0.,0.8,0.,0.8,7.,0.8
1979-03-10 18:05:00.230 ,3,0,3.,0.8,0.,0.8,0.,0.8,11.,0.8
1979-03-10 18:05:01.030 ,3,0,1.,0.8,0.,0.8,0.,0.8,5.,0.8
1979-03-10 18:05:01.830 ,3,0,1.,0.8,0.,0.8,0.,0.8,5.,0.8
1979-03-10 18:05:02.630 ,3,0,0.,0.8,0.,0.8,0.,0.8,5.,0.8
1979-03-10 18:05:03.430 ,3,0,2.,0.8,0.,0.8,0.,0.8,9.,0.8
1979-03-10 18:05:04.230 ,3,0,1.,0.8,0.,0.8,1.,0.8,8.,0.8
1979-03-10 18:05:05.030 ,3,0,2.,0.8,0.,0.8,0.,0.8,7.,0.8
1979-03-10 18:05:05.830 ,3,0,1.,0.8,0.,0.8,0.,0.8,5.,0.8
1979-03-10 18:05:06.630 ,3,0,2.,0.8,0.,0.8,0.,0.8,5.,0.8
1979-03-10 18:05:07.430 ,3,0,3.,0.8,0.,0.8,0.,0.8,7.,0.8
1979-03-10 18:05:08.230 ,4,0,2.,0.8,0.,0.8,0.,0.8,8.,0.8
1979-03-10 18:05:09.030 ,4,0,3.,0.8,0.,0.8,0.,0.8,7.,0.8
1979-03-10 18:05:09.830 ,4,0,1.,0.8,0.,0.8,0.,0.8,2.,0.8
1979-03-10 18:05:10.630 ,4,0,2.,0.8,0.,0.8,0.,0.8,9.,0.8
1979-03-10 18:05:11.430 ,4,0,1.,0.8,0.,0.8,0.,0.8,3.,0.8
1979-03-10 18:05:12.230 ,4,0,3.,0.8,0.,0.8,0.,0.8,5.,0.8
1979-03-10 18:05:13.030 ,4,0,3.,0.8,0.,0.8,0.,0.8,10.,0.8
1979-03-10 18:05:13.830 ,4,0,1.,0.8,0.,0.8,0.,0.8,8.,0.8
1979-03-10 18:05:14.630 ,4,0,0.,0.8,0.,0.8,0.,0.8,4.,0.8
1979-03-10 18:05:15.430 ,4,0,1.,0.8,0.,0.8,0.,0.8,5.,0.8
1979-03-10 18:05:16.230 ,4,0,0.,0.8,0.,0.8,0.,0.8,12.,0.8
1979-03-10 18:05:17.030 ,4,0,2.,0.8,0.,0.8,0.,0.8,8.,0.8
1979-03-10 18:05:17.830 ,4,0,3.,0.8,0.,0.8,0.,0.8,10.,0.8
1979-03-10 18:05:18.630 ,4,0,2.,0.8,0.,0.8,0.,0.8,10.,0.8
1979-03-10 18:05:19.430 ,4,0,3.,0.8,0.,0.8,0.,0.8,9.,0.8
1979-03-10 18:05:20.230 ,4,0,3.,0.8,0.,0.8,0.,0.8,9.,0.8
1979-03-10 18:05:21.030 ,4,0,3.,0.8,0.,0.8,0.,0.8,7.,0.8
1979-03-10 18:05:21.830 ,4,0,3.,0.8,0.,0.8,0.,0.8,10.,0.8
1979-03-10 18:05:22.630 ,4,0,1.,0.8,0.,0.8,0.,0.8,7.,0.8
1979-03-10 18:05:23.430 ,4,0,1.,0.8,0.,0.8,0.,0.8,8.,0.8
1979-03-10 18:05:24.230 ,4,0,3.,0.8,0.,0.8,0.,0.8,13.,0.8
1979-03-10 18:05:25.030 ,4,0,2.,0.8,0.,0.8,0.,0.8,11.,0.8
1979-03-10 18:05:25.830 ,4,0,3.,0.8,0.,0.8,0.,0.8,8.,0.8
1979-03-10 18:05:26.630 ,4,0,2.,0.8,0.,0.8,0.,0.8,11.,0.8
1979-03-10 18:05:27.430 ,4,0,1.,0.8,0.,0.8,0.,0.8,14.,0.8
1979-03-10 18:05:28.230 ,4,0,1.,0.8,0.,0.8,0.,0.8,5.,0.8
1979-03-10 18:05:29.030 ,4,0,2.,0.8,0.,0.8,0.,0.8,8.,0.8
1979-03-10 18:05:29.830 ,4,0,2.,0.8,0.,0.8,0.,0.8,9.,0.8
1979-03-10 18:05:30.630 ,4,0,1.,0.8,0.,0.8,0.,0.8,9.,0.8
1979-03-10 18:05:31.430 ,4,0,2.,0.8,0.,0.8,0.,0.8,7.,0.8
1979-03-10 18:05:32.230 ,5,0,3.,0.8,0.,0.8,0.,0.8,6.,0.8
1979-03-10 18:05:33.030 ,5,0,2.,0.8,0.,0.8,0.,0.8,10.,0.8
1979-03-10 18:05:33.830 ,5,0,3.,0.8,0.,0.8,0.,0.8,6.,0.8
1979-03-10 18:05:34.630 ,5,0,2.,0.8,0.,0.8,0.,0.8,5.,0.8
1979-03-10 18:05:35.430 ,5,0,1.,0.8,0.,0.8,0.,0.8,8.,0.8
1979-03-10 18:05:36.230 ,5,0,2.,0.8,0.,0.8,0.,0.8,7.,0.8
1979-03-10 18:05:37.030 ,5,0,3.,0.8,0.,0.8,0.,0.8,9.,0.8
1979-03-10 18:05:37.830 ,5,0,3.,0.8,0.,0.8,0.,0.8,11.,0.8
1979-03-10 18:05:38.630 ,5,0,2.,0.8,0.,0.8,0.,0.8,9.,0.8
1979-03-10 18:05:39.430 ,5,0,1.,0.8,0.,0.8,0.,0.8,5.,0.8
1979-03-10 18:05:40.230 ,5,0,1.,0.8,0.,0.8,0.,0.8,2.,0.8
1979-03-10 18:05:41.030 ,5,0,0.,0.8,0.,0.8,0.,0.8,8.,0.8
1979-03-10 18:05:41.830 ,5,0,2.,0.8,0.,0.8,0.,0.8,11.,0.8
1979-03-10 18:05:42.630 ,5,0,0.,0.8,0.,0.8,0.,0.8,4.,0.8
1979-03-10 18:05:43.430 ,5,0,0.,0.8,0.,0.8,0.,0.8,5.,0.8
1979-03-10 18:05:44.230 ,5,0,3.,0.8,0.,0.8,0.,0.8,11.,0.8
1979-03-10 18:05:45.030 ,5,0,1.,0.8,0.,0.8,0.,0.8,6.,0.8
1979-03-10 18:05:45.830 ,5,0,2.,0.8,0.,0.8,0.,0.8,5.,0.8
1979-03-10 18:05:46.630 ,5,0,3.,0.8,0.,0.8,0.,0.8,10.,0.8
1979-03-10 18:05:47.430 ,5,0,2.,0.8,0.,0.8,0.,0.8,9.,0.8